User: anonymous   Login
Location: Ash Swamp
(41.5170°N, 74.6157°W)
Time: 06:30:37
(UTC+00:00)
Language:

SPOT 1/Viking Rocket - Orbit

View from above orbital plane
View from above orbital plane
View from above satellite
View from above satellite

Ground track
Ground track

The orbit data is extracted from the following two-line orbital elements,

1 16615U 86019C   20272.45085940 +.00000030 +00000-0 +27140-4 0  9992
2 16615 098.4679 335.3599 0012919 105.7177 265.1859 14.31807944811020
Epoch (UTC): 28 September 2020 10:49:14
Eccentricity: 0.0012919
inclination: 98.4679°
perigee height: 776 km
apogee height: 795 km
right ascension of ascending node: 335.3599°
argument of perigee: 105.7177°
revolutions per day: 14.31807944
mean anomaly at epoch: 265.1859°
orbit number at epoch: 81102

The dashed part of the orbit path shows where the satellite is in the earth's shadow,  

DLR